Tracking 29892 objects as of 21-Nov-2024
HD Live streaming from Space Station
objects crossing your sky now

SL-8 DEB *

Track SL-8 DEB * now!
10-day predictions


NORAD ID: 18509
Int'l Code: 1982-051E
Perigee: 699.7 km
Apogee: 708.0 km
Inclination: 74.0 °
Period: 98.7 minutes
Semi major axis: 7074 km
RCS: 0.0095 m2 (small)
Launch date: June 1, 1982
Source: Commonwealth of Independent States (former USSR) (CIS)
Launch site: PLESETSK MISSILE AND SPACE COMPLEX (PKMTR)

Note: This is SATELLITE DEBRIS
Your satellite tracking list
Your tracking list is empty




NASA's NSSDC Master Catalog

Two Line Element Set (TLE):
1 18509U 82051E   24325.28551388  .00003733  00000-0  80233-3 0  9990
2 18509  74.0050   8.9147 0005875 184.4028 295.7329 14.58912194993880
Source of the keplerian elements: AFSPC